Date String (YYYY-MM-DD hh:mm:ss) UTC,Instrument flags,Ambient pressure (hPa),Sample flow (lpm),Bypass flow (lpm),Sample temperature (°C),Ambient temperature (°C),ASC tube jacket temperature (°C),LED temperature (°C),Box temperature (°C),Sample RH (%),Span deviation,Mass concentration (μg/m³),Mass concentration (μg/m³),Mass concentration (μg/m³)
DateTimeUTC,F1_M11,P_M11,Q1_M11,Q2_M11,T1_M11,T2_M11,T3_M11,T4_M11,T5_M11,U1_M11,ZSPAN_M11,X2_M11,X0_M11,X1_M11
2022-08-19 16:00:00,,0829.5,5.00,0.00,30.6,29.8,00.0,39.2,32.5,24.7,0000.0,0007.42,0018.44,0006.37
2022-08-19 16:01:00,,0829.5,5.00,0.00,30.6,29.8,00.0,39.2,32.5,24.2,0000.0,0007.47,0018.82,0006.39
2022-08-19 16:02:00,,0829.5,5.00,0.00,30.6,29.8,00.0,39.3,32.5,24.1,0000.0,0007.45,0019.22,0006.37
2022-08-19 16:03:00,,0829.5,5.00,0.00,30.7,29.9,00.0,39.3,32.6,24.0,0000.0,0007.41,0019.10,0006.34
2022-08-19 16:04:00,,0829.5,5.00,0.00,30.7,29.9,00.0,39.3,32.6,23.9,0000.0,0007.38,0018.07,0006.31
2022-08-19 16:05:00,,0829.4,5.01,0.00,30.7,29.6,00.0,39.3,32.5,24.2,0000.0,0007.38,0016.94,0006.29
2022-08-19 16:06:00,,0829.5,4.99,0.00,30.6,28.7,00.0,39.3,32.3,24.8,0000.0,0007.34,0016.56,0006.27
2022-08-19 16:07:00,,0829.5,5.00,0.00,30.6,28.3,00.0,39.3,32.2,25.0,0000.0,0007.33,0016.32,0006.25
2022-08-19 16:08:00,,0829.5,5.01,0.00,30.5,28.2,00.0,39.2,32.1,25.1,0000.0,0007.33,0016.62,0006.23
2022-08-19 16:09:00,,0829.5,4.99,0.00,30.4,28.3,00.0,39.2,32.1,24.9,0000.0,0007.26,0016.60,0006.18
2022-08-19 16:10:00,,0829.5,5.00,0.00,30.4,28.4,00.0,39.2,32.1,25.4,0000.0,0007.21,0016.23,0006.15
2022-08-19 16:11:00,,0829.5,5.00,0.00,30.4,28.5,00.0,39.2,32.1,24.5,0000.0,0007.15,0016.26,0006.11
2022-08-19 16:12:00,,0829.5,4.99,0.00,30.4,28.7,00.0,39.2,32.1,24.8,0000.0,0007.09,0016.21,0006.07
2022-08-19 16:13:00,,0829.5,5.00,0.00,30.4,28.8,00.0,39.2,32.2,25.3,0000.0,0007.04,0016.16,0006.07
2022-08-19 16:14:00,,0829.5,5.00,0.00,30.4,28.9,00.0,39.2,32.2,25.8,0000.0,0007.05,0015.98,0006.07
2022-08-19 16:15:00,,0829.5,5.00,0.00,30.4,29.1,00.0,39.2,32.2,25.0,0000.0,0007.06,0015.66,0006.07
2022-08-19 16:16:00,,0829.5,4.99,0.00,30.4,29.2,00.0,39.2,32.2,25.0,0000.0,0007.01,0015.16,0006.06
2022-08-19 16:17:00,,0829.5,5.00,0.00,30.4,29.3,00.0,39.2,32.3,25.6,0000.0,0007.02,0015.45,0006.06
2022-08-19 16:18:00,,0829.4,5.00,0.00,30.4,29.3,00.0,39.2,32.3,25.5,0000.0,0007.01,0016.49,0006.06
2022-08-19 16:19:00,,0829.5,5.01,0.00,30.5,29.4,00.0,39.2,32.3,25.3,0000.0,0007.01,0016.21,0006.06
2022-08-19 16:20:00,,0829.5,5.00,0.00,30.5,29.5,00.0,39.2,32.4,25.2,0000.0,0007.01,0016.08,0006.08
2022-08-19 16:21:00,,0829.4,5.00,0.00,30.5,29.5,00.0,39.2,32.4,25.1,0000.0,0007.04,0016.65,0006.09
2022-08-19 16:22:00,,0829.5,5.01,0.00,30.5,29.6,00.0,39.3,32.4,25.2,0000.0,0007.12,0016.85,0006.09
2022-08-19 16:23:00,,0829.5,4.99,0.00,30.6,29.7,00.0,39.3,32.5,25.0,0000.0,0007.15,0016.49,0006.09
2022-08-19 16:24:00,,0829.5,5.00,0.00,30.6,29.5,00.0,39.3,32.4,24.7,0000.0,0007.21,0016.09,0006.09
2022-08-19 16:25:00,,0829.4,4.99,0.00,30.5,28.8,00.0,39.2,32.2,24.8,0000.0,0007.20,0015.83,0006.09
2022-08-19 16:26:00,,0829.4,5.00,0.00,30.5,28.2,00.0,39.2,32.1,25.2,0000.0,0007.17,0016.05,0006.09
2022-08-19 16:27:00,,0829.4,5.01,0.00,30.4,28.1,00.0,39.2,32.1,25.5,0000.0,0007.20,0016.68,0006.11
2022-08-19 16:28:00,,0829.4,4.99,0.00,30.4,28.2,00.0,39.2,32.0,26.3,0000.0,0007.23,0016.75,0006.11
2022-08-19 16:29:00,,0829.3,5.00,0.00,30.3,28.3,00.0,39.1,32.0,25.7,0000.0,0007.26,0016.46,0006.12
2022-08-19 16:30:00,,0829.3,5.02,0.00,30.3,28.4,00.0,39.1,32.1,25.8,0000.0,0007.24,0016.73,0006.11
2022-08-19 16:31:00,,0829.4,5.00,0.00,30.3,28.6,00.0,39.1,32.1,25.7,0000.0,0007.27,0017.87,0006.10
2022-08-19 16:32:00,,0829.4,5.01,0.00,30.3,28.7,00.0,39.1,32.1,25.7,0000.0,0007.27,0017.54,0006.10
2022-08-19 16:33:00,,0829.4,4.99,0.00,30.3,28.9,00.0,39.1,32.1,25.7,0000.0,0007.21,0017.17,0006.11
2022-08-19 16:34:00,,0829.5,5.00,0.00,30.3,29.0,00.0,39.1,32.2,26.1,0000.0,0007.21,0017.31,0006.13
2022-08-19 16:35:00,,0829.5,5.01,0.00,30.4,29.1,00.0,39.1,32.2,25.5,0000.0,0007.20,0017.48,0006.14
2022-08-19 16:36:00,,0829.5,5.00,0.00,30.4,29.2,00.0,39.1,32.2,25.5,0000.0,0007.22,0017.49,0006.15
2022-08-19 16:37:00,,0829.5,5.00,0.00,30.4,29.3,00.0,39.2,32.3,26.1,0000.0,0007.29,0017.34,0006.17
2022-08-19 16:38:00,,0829.5,5.00,0.00,30.4,29.4,00.0,39.2,32.3,25.7,0000.0,0007.32,0017.44,0006.18
2022-08-19 16:39:00,,0829.4,5.00,0.00,30.5,29.5,00.0,39.2,32.4,25.6,0000.0,0007.32,0017.41,0006.19
2022-08-19 16:40:00,,0829.5,4.99,0.00,30.5,29.5,00.0,39.2,32.4,25.7,0000.0,0007.35,0016.87,0006.21
2022-08-19 16:41:00,,0829.5,4.99,0.00,30.5,29.6,00.0,39.2,32.4,25.5,0000.0,0007.40,0018.72,0006.22
2022-08-19 16:42:00,,0829.5,5.00,0.00,30.5,29.2,00.0,39.2,32.4,25.0,0000.0,0007.41,0017.74,0006.22
2022-08-19 16:43:00,,0829.5,5.01,0.00,30.5,28.5,00.0,39.2,32.1,25.0,0000.0,0007.40,0018.12,0006.24
2022-08-19 16:44:00,,0829.5,4.99,0.00,30.4,28.2,00.0,39.1,32.1,25.5,0000.0,0007.39,0017.98,0006.25
2022-08-19 16:45:00,,0829.5,5.00,0.00,30.3,28.1,00.0,39.1,32.0,25.8,0000.0,0007.38,0017.95,0006.25
2022-08-19 16:46:00,,0829.5,4.99,0.00,30.3,28.2,00.0,39.1,32.0,25.9,0000.0,0007.45,0018.07,0006.26
2022-08-19 16:47:00,,0829.5,5.00,0.00,30.2,28.3,00.0,39.1,32.0,25.9,0000.0,0007.46,0018.15,0006.25
2022-08-19 16:48:00,,0829.4,5.00,0.00,30.2,28.5,00.0,39.1,32.0,25.7,0000.0,0007.46,0018.72,0006.24
2022-08-19 16:49:00,,0829.4,5.01,0.00,30.3,28.6,00.0,39.1,32.0,25.9,0000.0,0007.47,0018.25,0006.24
2022-08-19 16:50:00,,0829.4,5.00,0.00,30.3,28.8,00.0,39.1,32.1,26.0,0000.0,0007.45,0017.77,0006.24
2022-08-19 16:51:00,,0829.4,5.01,0.00,30.3,28.9,00.0,39.1,32.1,26.1,0000.0,0007.43,0017.28,0006.24
2022-08-19 16:52:00,,0829.4,5.00,0.00,30.3,29.0,00.0,39.1,32.1,25.6,0000.0,0007.45,0016.27,0006.24
2022-08-19 16:53:00,,0829.5,5.00,0.00,30.3,29.1,00.0,39.1,32.2,25.6,0000.0,0007.49,0017.28,0006.24
2022-08-19 16:54:00,,0829.4,5.01,0.00,30.4,29.2,00.0,39.1,32.2,25.6,0000.0,0007.51,0016.77,0006.24
2022-08-19 16:55:00,,0829.4,4.99,0.00,30.4,29.3,00.0,39.1,32.3,26.2,0000.0,0007.51,0017.30,0006.24
2022-08-19 16:56:00,,0829.3,5.00,0.00,30.4,29.4,00.0,39.1,32.3,26.8,0000.0,0007.52,0018.41,0006.23
2022-08-19 16:57:00,,0829.4,5.00,0.00,30.4,29.5,00.0,39.2,32.3,26.7,0000.0,0007.55,0018.75,0006.23
2022-08-19 16:58:00,,0829.4,5.01,0.00,30.5,29.5,00.0,39.2,32.4,26.5,0000.0,0007.55,0018.81,0006.23
2022-08-19 16:59:00,,0829.4,5.00,0.00,30.5,29.2,00.0,39.2,32.3,25.7,0000.0,0007.54,0018.10,0006.23
